FW1833 Weather Reports


time (UTC)temp
F
wind
direction
speed
knots
gust
knots
rain 1hr
in
rain 24hr
in
rain mn
in
humidity
%
barometer
mb
20260507231521 50 170 0.0 0.9 0.00 1.04 1.04 98 1002.6
20260507230035 51 170 0.9 2.6 0.00 1.04 1.04 98 1002.5
20260507224522 51 170 0.0 3.5 0.00 1.04 1.04 98 1002.7
20260507223030 51 173 1.7 4.3 0.00 1.04 1.04 98 1002.8
20260507221518 51 174 1.7 3.5 0.00 1.04 1.04 99 1002.7
20260507220018 51 177 0.0 5.2 0.00 1.04 1.04 99 1002.7
20260507214518 51 190 3.5 6.1 0.00 1.04 1.04 99 1002.9
20260507213017 50 113 0.0 1.7 0.01 1.04 1.04 99 1003.2
20260507211516 50 114 0.0 1.7 0.02 1.04 1.04 98 1003.2
20260507210017 49 113 0.0 1.7 0.04 1.04 1.04 98 1002.7
20260507204514 49 114 0.9 4.3 0.06 1.04 1.04 98 1002.4
20260507203027 49 152 2.6 6.1 0.09 1.03 1.03 98 1002.3
20260507201506 48 115 3.5 7.8 0.15 1.02 1.02 97 1003.0
20260507200003 49 83 1.7 6.1 0.20 1.00 1.00 97 1003.4
20260507194501 51 152 4.3 6.1 0.30 0.98 0.98 97 1003.7
20260507193100 52 162 1.7 3.5 0.34 0.94 0.94 97 1003.9
20260507191557 52 183 0.0 1.7 0.37 0.87 0.87 97 1004.4
20260507190055 52 183 1.7 8.7 0.43 0.80 0.80 98 1004.9
20260507184553 52 197 2.6 6.1 0.51 0.69 0.69 97 1005.1
20260507183055 52 185 2.6 6.1 0.50 0.61 0.61 97 1005.2
20260507181558 51 177 2.6 7.0 0.43 0.50 0.50 97 1005.6
20260507180054 51 183 0.0 5.2 0.32 0.37 0.37 97 1005.9
20260507174556 51 211 3.5 13.0 0.16 0.17 0.17 97 1005.8
20260507173054 51 184 2.6 13.0 0.10 0.11 0.11 97 1005.0
20260507171558 51 156 5.2 11.3 0.06 0.07 0.07 97 1005.1
20260507170049 51 135 3.5 8.7 0.04 0.05 0.05 97 1005.5
20260507164542 51 142 1.7 5.2 0.01 0.02 0.02 97 1006.1
20260507163042 50 113 2.6 4.3 0.01 0.01 0.01 96 1006.6
20260507161544 50 119 1.7 5.2 0.01 0.01 0.01 95 1007.1
20260507160039 51 120 1.7 4.3 0.01 0.01 0.01 95 1007.5
20260507154533 51 171 2.6 6.1 0.00 0.00 0.00 94 1008.0
20260507153035 52 167 1.7 8.7 0.00 0.00 0.00 94 1008.3
20260507151530 53 169 1.7 8.7 0.00 0.00 0.00 93 1008.7
20260507150028 53 198 6.1 12.2 0.00 0.00 0.00 92 1009.0
20260507144529 54 150 1.7 4.3 0.00 0.00 0.00 93 1009.1
20260507143025 54 148 2.6 7.0 0.00 0.00 0.00 92 1009.4
20260507141522 54 177 3.5 12.2 0.00 0.00 0.00 92 1009.8
20260507140021 54 133 2.6 7.8 0.00 0.00 0.00 93 1010.0
20260507134519 54 180 5.2 13.9 0.00 0.00 0.00 93 1010.2
20260507133019 54 146 4.3 13.9 0.00 0.00 0.00 94 1010.4
20260507131525 54 168 4.3 12.2 0.00 0.00 0.00 94 1010.4
20260507130017 54 169 3.5 10.4 0.00 0.00 0.00 95 1010.7
20260507124515 54 177 2.6 9.6 0.00 0.00 0.00 96 1010.7
20260507123014 54 163 3.5 18.2 0.00 0.00 0.00 97 1010.2
20260507121513 53 135 3.5 10.4 0.00 0.00 0.00 97 1010.5
20260507120010 53 166 3.5 8.7 0.00 0.00 0.00 97 1010.9
20260507114507 53 155 4.3 10.4 0.00 0.00 0.00 98 1011.4
20260507113004 52 151 4.3 7.8 0.00 0.00 0.00 98 1011.4
20260507111507 52 122 2.6 7.8 0.00 0.00 0.00 99 1011.5
20260507110100 49 119 2.6 7.8 0.00 0.00 0.00 98 1011.8
20260507104556 49 167 1.7 5.2 0.00 0.00 0.00 98 1011.9
20260507103050 51 115 4.3 8.7 0.00 0.00 0.00 98 1011.6
20260507101558 51 170 2.6 6.1 0.00 0.00 0.00 99 1012.2
20260507100056 52 130 2.6 8.7 0.00 0.00 0.00 99 1012.1
20260507094544 50 182 1.7 5.2 0.00 0.00 0.00 99 1012.6
20260507093043 49 67 0.0 2.6 0.00 0.00 0.00 99 1012.5
20260507091542 48 68 0.0 2.6 0.00 0.00 0.00 99 1012.4
20260507090044 47 102 0.0 5.2 0.00 0.00 0.00 98 1012.7
20260507084544 47 106 1.7 4.3 0.00 0.00 0.00 98 1012.6
20260507083051 47 125 0.9 2.6 0.00 0.00 0.00 98 1012.8
20260507081537 48 118 0.9 3.5 0.00 0.00 0.00 98 1012.8
20260507080032 48 72 0.9 5.2 0.00 0.00 0.00 98 1013.0
20260507074531 48 145 1.7 5.2 0.00 0.00 0.00 98 1013.3
20260507073031 48 158 1.7 7.0 0.00 0.00 0.00 98 1013.5
20260507071530 47 163 2.6 4.3 0.00 0.00 0.00 98 1014.0
20260507070035 47 147 2.6 4.3 0.00 0.00 0.00 98 1014.4
20260507064533 47 150 2.6 7.8 0.00 0.00 0.00 97 1014.3
20260507063028 47 142 3.5 7.8 0.00 0.00 0.00 97 1014.4
20260507061521 47 150 3.5 9.6 0.00 0.00 0.00 97 1014.4
20260507060021 47 150 2.6 7.0 0.00 0.00 0.00 97 1014.7
20260507054513 47 134 2.6 6.1 0.00 0.00 0.00 97 1015.0
20260507053010 47 83 0.0 1.7 0.00 0.00 0.00 96 1015.3
20260507051509 47 83 0.0 2.6 0.00 0.00 0.00 96 1015.6
20260507050007 47 48 0.9 3.5 0.00 0.00 0.00 96 1016.1
20260507044502 47 115 0.0 2.6 0.00 0.00 0.00 95 1016.6
20260507043102 48 120 2.6 7.0 0.00 0.00 0.00 95 1016.7
20260507041556 50 57 0.0 1.7 0.00 0.00 0.00 96 1016.9
20260507040054 50 58 0.0 1.7 0.00 0.00 0.00 96 1017.3
20260507034552 50 57 0.9 2.6 0.00 0.00 0.00 96 1017.4
20260507033050 49 58 0.0 3.5 0.00 0.00 0.00 96 1017.7
20260507031549 49 95 0.0 8.7 0.00 0.00 0.00 95 1018.0
20260507030045 50 148 1.7 4.3 0.00 0.00 0.00 95 1018.1
20260507024547 50 155 0.9 5.2 0.00 0.00 0.00 95 1018.2
20260507023042 50 158 0.0 1.7 0.00 0.00 0.00 95 1018.4
20260507021540 50 158 0.0 2.6 0.00 0.00 0.00 94 1018.5
20260507020050 51 160 0.9 4.3 0.00 0.00 0.00 94 1018.6
20260507014543 51 171 0.9 6.1 0.00 0.00 0.00 94 1018.5
20260507013034 51 186 1.7 6.1 0.00 0.00 0.00 93 1018.7
20260507011533 52 178 2.6 7.0 0.00 0.00 0.00 92 1018.8
20260507010031 52 191 1.7 6.1 0.00 0.00 0.00 92 1019.0
20260507004535 52 166 0.9 5.2 0.00 0.00 0.00 90 1019.0
20260507003031 53 167 1.7 7.8 0.00 0.00 0.00 89 1018.9
20260507001526 53 172 4.3 9.6 0.00 0.00 0.00 88 1018.9
20260507000026 54 169 3.5 7.8 0.00 0.00 0.00 87 1019.0
20260506234532 55 197 2.6 7.8 0.00 0.00 0.00 86 1018.9
20260506233018 55 221 3.5 10.4 0.00 0.00 0.00 85 1018.7